Location: Amon Carter Post Office
(32.8281°N, 97.0484°W)
Time: 22:28:13
(UTC+00:00)

Lacrosse 5 rocket - Pass Details

Date: 11 July 2022
Orbit: 456 x 628 km, 57.0° (Epoch: 08 August)

Event Time Altitude Azimuth Distance (km) Brightness Sun altitude
Rises 02:01:15 0° 303° (WNW) 2,593 7.8 -4.9°
Reaches altitude 10° 02:03:51 10° 284° (WNW) 1,739 5.4 -5.4°
Maximum altitude 02:06:38 19° 239° (WSW) 1,315 3.6 -5.9°
Drops below altitude 10° 02:09:30 10° 194° (SSW) 1,807 3.8 -6.4°
Sets 02:12:17 0° 176° (S) 2,736 4.5 -6.9°
